User: anonymous   Login
Location: Brahman Valley
(40.6513°N, 111.8855°W)
Time: 23:08:08
(UTC+00:00)
Language:

DELFI C3 - Orbit

View from above orbital plane
View from above orbital plane
View from above satellite
View from above satellite

Ground track
Ground track

The orbit data is extracted from the following two-line orbital elements,

1 32789U 08021G   21175.57657437  .00002125  00000-0  13788-3 0  9990
2 32789  97.3752 210.6682 0013429 115.0784 245.1841 15.09035245717907
Epoch (UTC): 24 June 2021 13:50:16
Eccentricity: 0.0013429
inclination: 97.3752°
perigee height: 530 km
apogee height: 548 km
right ascension of ascending node: 210.6682°
argument of perigee: 115.0784°
revolutions per day: 15.09035245
mean anomaly at epoch: 245.1841°
orbit number at epoch: 71790

The dashed part of the orbit path shows where the satellite is in the earth's shadow,  

DLR